CET,Max TemperatureF,Mean TemperatureF,Min TemperatureF,Max Dew PointF,MeanDew PointF,Min DewpointF,Max Humidity, Mean Humidity, Min Humidity, Max Sea Level PressureIn, Mean Sea Level PressureIn, Min Sea Level PressureIn, Max VisibilityMiles, Mean VisibilityMiles, Min VisibilityMiles, Max Wind SpeedMPH, Mean Wind SpeedMPH, Max Gust SpeedMPH,PrecipitationIn, CloudCover, Events, WindDirDegrees
2012-10-1,75,66,57,68,61,54,100,82,69,30.15,30.06,30.01,6,6,4,15,5,,0.00,2,Rain,271
2012-10-2,75,65,55,61,58,54,100,78,50,30.18,30.14,30.12,6,6,6,10,3,,0.00,1,,276
2012-10-3,78,66,53,64,59,52,100,83,44,30.18,30.15,30.12,6,6,1,10,3,,0.00,1,Fog,261
2012-10-4,78,66,53,63,59,54,100,82,44,30.15,30.10,30.06,6,5,1,10,3,,0.00,1,Fog,5
2012-10-5,84,68,51,64,59,52,100,78,37,30.12,30.10,30.09,6,5,5,8,3,,0.00,1,Fog,32
2012-10-6,80,68,55,66,61,52,100,80,37,30.15,30.12,30.09,6,6,6,10,3,,0.00,2,,316
2012-10-7,78,72,66,70,67,63,94,86,74,30.12,30.07,30.06,6,6,6,13,5,,0.00,3,,233
2012-10-8,77,70,64,68,64,61,94,79,61,30.06,30.02,29.98,6,6,6,10,6,,0.00,2,,272
2012-10-9,80,70,60,70,64,59,100,86,65,30.04,29.96,29.92,6,6,6,15,5,,0.00,2,,232
2012-10-10,77,70,64,66,64,63,94,82,61,29.95,29.91,29.89,6,6,6,15,6,,0.00,1,,250
2012-10-11,78,68,59,70,65,59,100,85,57,29.92,29.87,29.83,6,6,6,14,5,,0.00,2,Rain-Thunderstorm,195
2012-10-12,78,70,60,70,64,59,100,85,61,29.95,29.88,29.77,6,6,5,14,7,24,0.00,3,Rain-Thunderstorm,288
2012-10-13,71,64,57,63,58,55,100,83,60,29.95,29.90,29.86,6,6,6,9,3,,0.00,1,,293
2012-10-14,73,62,50,61,55,50,100,77,47,29.89,29.83,29.74,6,6,6,13,4,,0.00,1,,222
2012-10-15,68,62,55,63,57,46,94,78,59,29.86,29.73,29.62,6,6,2,20,12,29,0.00,3,Rain-Thunderstorm,250
2012-10-16,71,64,57,57,52,43,94,64,52,30.09,30.00,29.86,6,6,6,16,11,28,0.00,2,,275
2012-10-17,77,66,55,59,56,52,100,76,44,30.15,30.10,30.06,6,6,6,9,4,,0.00,2,,41
2012-10-18,82,66,51,59,54,50,94,67,34,30.09,30.04,29.98,,,,9,5,,0.00,,,31
2012-10-19,84,72,60,68,63,57,94,76,48,30.04,30.02,30.01,6,6,6,13,6,,0.00,1,,29
2012-10-20,86,75,64,70,65,61,94,79,45,30.04,30.00,29.95,5,5,5,10,7,,0.00,,,24
2012-10-21,80,73,66,70,66,63,94,82,65,30.01,29.97,29.92,6,6,6,12,5,,0.00,2,,4
2012-10-22,69,66,62,68,65,63,100,93,83,30.09,30.05,30.01,6,6,2,8,5,,0.00,4,Rain-Thunderstorm,313
2012-10-23,73,66,59,64,61,57,100,86,60,30.09,30.06,30.04,6,6,6,8,3,,0.00,2,,310
2012-10-24,73,65,57,63,60,55,100,88,53,30.04,29.95,29.92,6,6,5,10,3,,0.00,1,,16
2012-10-25,73,63,53,63,58,54,100,87,57,29.95,29.90,29.86,6,6,0,9,3,,0.00,1,Fog,123
2012-10-26,69,62,55,66,60,55,100,91,73,29.86,29.67,29.50,6,5,2,21,5,32,0.00,3,Fog-Rain-Thunderstorm,345
2012-10-27,71,65,57,64,59,46,94,78,63,29.50,29.41,29.33,6,6,2,20,13,34,0.00,3,Rain-Thunderstorm,265
2012-10-28,55,50,44,46,40,34,87,66,50,29.68,29.62,29.53,6,6,4,25,15,43,0.00,4,Rain,284
2012-10-29,57,52,46,46,42,37,82,66,58,29.95,29.84,29.71,6,6,6,23,14,40,0.00,4,Rain,277
2012-10-30,64,54,44,48,45,41,93,75,52,29.95,29.81,29.65,6,6,6,12,4,,0.00,2,,79
2012-10-31,66,58,51,61,55,46,94,82,72,29.65,29.34,29.15,6,6,1,33,12,53,0.00,3,Rain,174